Terminal Aerodrome Forecast
Issued by NWS Tulsa, OK

Home | Current Version | Previous Version | Text Only | Print | Product List | Glossary On
Versions: 1 2 3 4 5 6 7 8 9 10 11 12 13 14 15 16 17 18 19 20 21 22 23 24 25 26 27 28 29 30 31 32 33 34 35 36
000
FTPQ31 PGUM 272236 RRL
TAFTPN
TAF

TAF
PTSA 272235Z 2723/2818 08011KT P6SM VCSH SCT014 BKN130
      TEMPO 2723/2724 -SHRA BKN014 BKN120=

USA.gov is the U.S. government's official web portal to all federal, state and local government web resources and services.